Flag for Canada Weather past 2 weeks in Oakville, Ontario, Canada

Now
29 °F

Chilly.


Feels Like: 24 °F
Forecast: 27 / 37 °F
Wind: 5 mph from Southwest

Location: Burlington Piers


UV Index: 5 (Moderate)

Visibility: N/A


Pressure: 30.48 "Hg

Humidity: 62%

Dew point: 17 °F

Location of OakvilleLocation

Historic Weather in Oakville

°F

Oakville temperature yesterday

Maximum temperature yesterday: 39 °F (at 1:00 AM)
Minimum temperature yesterday: 26 °F (at 11:00 PM)
Average temperature yesterday: 32 °F

Past Weeks' High & Low Weather Summary

 TemperatureHumidityPressure
High72 °F (Apr 13, 6:00 PM)100% (Apr 4, 8:00 PM)30.46 "Hg (Apr 4, 8:00 PM)
Low25 °F (Apr 16, 5:00 AM)28% (Apr 9, 4:00 PM)29.32 "Hg (Apr 8, 5:00 AM)
Average41 °F69%29.90 "Hg
* Reported Apr 1 9:00 AM — Apr 16 9:00 AM, Oakville, Weather by CustomWeather, © 2014

Note: Actual official high and low records may vary slightly from our data, if they occured in-between our weather recording intervals... More about our weather records

Advertising

Historic Weather Conditions — Data for Previous 24 hours

 ConditionsComfort  
Time TempWeatherWind HumidityBarometerVisibility
9:00 AM
Apr 16
27 °FChilly.3 mph62%30.46 "HgN/A
8:00 AM26 °FChilly.5 mph70%30.43 "HgN/A
7:00 AM26 °FChilly.3 mph69%30.40 "HgN/A
6:00 AM26 °FChilly.3 mph65%30.36 "HgN/A
5:00 AM25 °FChilly.6 mph64%30.31 "HgN/A
4:00 AM26 °FChilly.6 mph63%30.28 "HgN/A
3:00 AM26 °FChilly.6 mph61%30.26 "HgN/A
2:00 AM26 °FChilly.7 mph59%30.24 "HgN/A
1:00 AM26 °FChilly.7 mph57%30.24 "HgN/A
12:00 AM26 °FChilly.6 mph58%30.22 "HgN/A
11:00 PM
Apr 15
26 °FChilly.8 mph55%30.20 "HgN/A
10:00 PM27 °FChilly.12 mph54%30.17 "HgN/A
9:00 PM27 °FChilly.12 mph58%30.13 "HgN/A
7:00 PM30 °FChilly.13 mph72%30.05 "HgN/A
6:00 PM29 °FChilly.15 mph72%29.98 "HgN/A
5:00 PM30 °FChilly.17 mph77%29.95 "HgN/A
4:00 PM30 °FChilly.17 mph85%29.93 "HgN/A
3:00 PM31 °FChilly.16 mph91%29.89 "HgN/A
2:00 PM30 °FChilly.18 mph96%29.85 "HgN/A
1:00 PM30 °FChilly.13 mphN/A29.83 "HgN/A
12:00 PM30 °FChilly.15 mphN/A29.83 "HgN/A
11:00 AM31 °FChilly.13 mph96%29.79 "HgN/A
10:00 AM31 °FChilly.14 mph80%29.76 "HgN/A
Weather by CustomWeather, © 2014

See weather overview